Location: Chiroubles
(46.1812°N, 4.6660°E)
Time: 00:30:15
(UTC+00:00)

Geosat - Visible Passes

Search period start: 05 December 2020 00:00
Search period end: 15 December 2020 00:00
Orbit: 763 x 766 km, 108.0° (Epoch: 04 December)

Date Brightness Start Highest point End Pass type
(mag) Time Alt. Az. Time Alt. Az. Time Alt. Az.
05 Dec 5.5 05:52:36 10° ESE 05:56:59 31° NE 06:01:22 10° N visible
06 Dec 6.3 05:17:24 10° E 05:20:37 17° NE 05:23:50 10° N visible
07 Dec 5.2 06:16:31 10° ESE 06:21:10 40° NE 06:25:51 10° NNW visible
08 Dec 6.0 05:40:58 10° E 05:44:44 22° NE 05:48:28 10° N visible
09 Dec 6.5 05:06:31 10° ENE 05:08:29 12° NE 05:10:26 10° NNE visible
10 Dec 5.7 06:04:42 10° ESE 06:08:51 27° NE 06:13:02 10° N visible
11 Dec 6.4 05:29:44 10° ENE 05:32:32 15° NE 05:35:21 10° N visible
12 Dec 5.4 06:28:32 10° ESE 06:33:01 34° NE 06:37:31 10° NNW visible
13 Dec 6.2 05:53:12 10° E 05:56:38 19° NE 06:00:03 10° N visible
14 Dec 6.6 05:19:21 10° NE 05:20:26 11° NE 05:21:31 10° NNE visible
